Regional Weather Roundup
Issued by NWS Sioux Falls, SD

Home | Current Version | Previous Version | Graphics & Text | Print | Product List | Glossary Off
Versions: 1 2 3 4 5 6 7 8 9 10 11 12 13 14 15 16 17 18 19 20 21 22 23 24 25 26 27 28 29 30 31 32 33 34 35 36 37 38 39 40 41 42 43 44 45 46 47 48 49 50

401
ASUS43 KFSD 012210
RWRFSD

WEATHER ROUNDUP FOR SE SOUTH DAKOTA/SW MINNESOTA/NW IOWA
NATIONAL WEATHER SERVICE SIOUX FALLS SD
500 PM CDT SUN MAY 01 2016

NOTE: "FAIR" INDICATES FEW OR NO CLOUDS BELOW 12,000 FEET WITH NO
SIGNIFICANT WEATHER AND OR OBSTRUCTIONS TO VISIBILITY.


SDZ038>040-050-052>070-012300-
SOUTHEAST SOUTH DAKOTA

CITY           SKY/WX    TMP DP  RH WIND       PRES   REMARKS
BROOKINGS      MOSUNNY   57  33  40 NE9       30.15F
CHAMBERLAIN    SUNNY     60  35  40 NE10G16   30.20F
HURON          SUNNY     61  33  35 NE10      30.18F
MADISON        FAIR      55  32  41 N15       30.16S
MITCHELL       SUNNY     58  37  45 N14       30.18F
SIOUX FALLS    PTSUNNY   59  39  47 NE8       30.15F
WINNER         FAIR      58  32  37 NE14G20   30.21F
YANKTON        PTSUNNY   55  37  50 N9        30.15F
$$

MNZ071-072-080-081-089-090-097-098-012300-
SOUTHWEST MINNESOTA

CITY           SKY/WX    TMP DP  RH WIND       PRES   REMARKS
FAIRMONT       CLOUDY    57  32  38 N13       30.10S
JACKSON        PTSUNNY   54  37  54 N7G13     30.12S
LUVERNE        MOSUNNY   55  32  41 N9        30.14F
MARSHALL       SUNNY     58  32  37 N13       30.14F
MONTEVIDEO     SUNNY     63  30  29 NE10G17   30.16S
REDWOOD FALLS  MOSUNNY   62  31  31 NE12      30.13S
TRACY          MOSUNNY   60  37  42 N9        30.13F
WINDOM         MOSUNNY   57  36  44 N9G16     30.13S
WORTHINGTON    PTSUNNY   55  38  52 NE12      30.13F
$$

IAZ001>003-012>014-020>022-031-032-NEZ013-014-SDZ071-012300-
NORTHWEST IOWA

CITY           SKY/WX    TMP DP  RH WIND       PRES   REMARKS
CHEROKEE       CLOUDY    53  43  68 N9        30.12S
DENISON        CLOUDY    50  45  81 N16       30.08F
ESTHERVILLE    CLOUDY    56  42  59 N14       30.10F
LE MARS        CLOUDY    55  41  58 N9G16     30.14F
ORANGE CITY    CLOUDY    54  41  62 N8G17     30.14R
SHELDON        CLOUDY    55  43  62 N17       30.12S
SIOUX CITY     CLOUDY    55  41  59 NE12G21   30.14F
SPENCER        CLOUDY    54  39  57 N12       30.12S
STORM LAKE     CLOUDY    50  45  81 NE9       30.12S
$$

ABBREVIATIONS USED IN REMARKS
   TC - TEMPERATURE IN CELSIUS
  WCI - WIND CHILL INDEX
   HX - HEAT INDEX
  VSB - VISIBILITY





USA.gov is the U.S. government's official web portal to all federal, state and local government web resources and services.